{"data":{"norad_id":50176,"epoch":"2026-05-25T01:30:26.968032Z","epoch_age_seconds":66738,"freshness":"FRESH","line1":"1 50176U 21125W   26145.06281213 -.00000752  00000+0 -29188-4 0  9998","line2":"2 50176  53.2154 266.2673 0001120  84.2866 275.8253 15.08835402248171","mean_motion":15.08835402,"eccentricity":0.000112,"inclination_deg":53.2154,"raan_deg":266.2673,"arg_perigee_deg":84.2866,"mean_anomaly_deg":275.8253,"bstar":-2.9188e-5,"rev_number":24817,"period_min":95.437845512588,"perigee_km":538.98263906869,"apogee_km":540.53224742398,"semimajor_km":6917.8944432463,"source":"CELESTRAK","updated_at":"2026-05-25T13:38:16.845132Z"}}